Theta_e
282 282 282 282 282 282 281 281 281 282 281 281 281 281 281 281 281 280 280 280 280 280 280 279 279 280 280 281 281 282 281 282 280 282 285 287 287 288 289 291 291 291 292
281 281 281 281 281 280 280 280 281 280 280 279 280 279 279 279 279 279 279 279 279 279 279 279 279 279 279 279 280 279 280 281 280 278 281 283 284 286 287 287 288 289 291
280 280 280 279 279 278 278 279 279 278 277 277 276 276 276 276 276 276 276 277 278 278 279 278 279 279 278 279 279 279 279 280 280 279 279 281 282 284 284 285 286 288 288
279 278 277 277 277 277 277 276 275 275 274 274 274 274 274 273 273 274 274 274 275 275 276 276 276 277 278 278 279 279 279 279 279 278 278 279 280 282 283 282 282 285 285
277 276 275 276 276 275 274 273 273 273 273 272 272 271 271 271 272 272 273 272 272 273 274 274 274 275 276 277 276 277 278 278 278 278 277 278 278 278 279 282 282 284 285
275 274 275 274 273 272 272 271 271 270 270 270 269 269 268 269 272 273 273 272 272 271 271 271 272 273 273 275 276 277 277 275 275 276 277 277 277 278 280 281 281 280 279
273 273 272 271 270 270 269 269 268 268 268 267 267 267 266 267 270 273 273 271 270 270 270 270 270 271 271 271 272 274 274 275 276 274 273 274 276 278 279 278 279 279 279
271 271 270 269 268 267 267 266 266 266 265 265 265 265 265 266 270 271 272 270 269 269 269 269 269 269 270 271 271 271 272 273 273 274 274 274 275 276 278 278 277 277 278
270 269 268 267 265 265 263 264 264 264 263 263 265 264 263 263 268 270 270 269 268 268 269 269 269 269 271 273 272 271 271 272 275 277 277 278 279 279 279 278 276 275 274
269 268 267 266 262 262 263 262 263 262 263 263 263 263 262 262 266 269 270 269 267 268 269 269 271 271 273 275 273 272 270 271 272 272 273 275 276 275 277 276 275 272 272
267 266 265 264 262 261 261 261 260 260 261 260 260 261 262 262 263 268 271 270 269 268 269 270 271 273 274 275 276 273 272 274 274 273 273 273 274 274 275 275 276 275 273
265 264 261 258 259 261 257 258 258 258 258 258 258 260 262 263 266 268 271 273 273 270 269 271 271 274 275 277 277 277 279 279 275 272 272 271 272 272 274 274 275 275 276
260 255 254 257 259 259 257 258 258 259 258 259 260 260 262 264 266 270 271 272 273 272 272 273 276 277 277 276 276 277 276 274 273 271 270 271 271 272 273 273 273 274 274
253 256 258 257 258 258 260 260 259 258 259 260 261 262 265 266 267 268 269 271 273 273 273 273 272 272 272 271 269 270 270 271 270 269 269 271 272 272 271 272 271 271 270
256 258 258 258 257 258 260 260 261 262 263 264 266 266 265 265 267 273 273 272 272 272 270 266 263 264 264 265 265 266 267 267 267 268 268 268 269 269 270 271 270 269 268
258 259 258 258 258 259 259 259 263 266 268 269 270 269 268 271 272 273 274 274 272 271 263 260 260 261 261 262 263 263 265 265 267 267 268 268 268 268 268 269 269 268 268
254 257 257 258 257 257 257 257 256 259 264 266 267 268 269 270 271 273 272 272 268 267 260 259 259 260 261 262 262 263 264 266 267 268 269 268 268 268 268 268 268 269 268
251 255 254 255 255 255 255 256 255 254 254 256 261 264 267 268 270 271 270 266 260 261 260 259 260 261 261 262 263 264 265 266 267 268 269 268 267 267 267 267 268 268 269
252 252 253 253 253 254 254 253 253 253 253 254 256 260 261 265 268 266 266 259 259 259 260 260 261 261 262 263 264 265 266 266 266 267 269 268 267 267 267 268 268 269 270
250 252 253 252 253 252 252 252 252 252 253 253 254 255 256 261 258 257 258 258 259 259 260 260 261 262 263 263 265 266 266 266 266 267 268 269 269 268 267 267 268 268 270
250 250 253 251 250 250 250 250 251 252 253 253 253 255 264 258 255 255 256 257 258 259 260 260 261 262 263 264 265 266 266 267 266 267 267 268 269 269 271 271 271 271 273
250 249 247 249 250 250 250 250 251 251 253 252 253 253 261 253 253 254 255 256 257 258 259 260 261 262 263 264 264 266 267 267 266 266 266 267 268 269 269 270 270 271 271
250 250 249 250 251 249 250 249 249 251 252 252 252 252 252 252 252 253 254 255 256 258 259 260 260 261 263 263 265 267 267 268 267 267 266 266 267 267 268 268 268 268 268
252 251 252 252 251 249 249 249 250 251 252 253 251 251 251 252 252 252 253 254 255 257 259 260 260 260 262 263 264 266 269 270 268 267 267 266 266 266 267 267 267 266 267
251 252 253 251 250 249 248 248 250 250 251 252 252 250 251 251 251 252 253 254 255 256 256 258 260 261 262 262 264 265 269 270 268 267 267 266 266 266 265 265 265 266 266
254 252 251 251 250 249 249 249 250 251 251 251 250 250 250 250 251 252 253 253 254 254 254 256 258 258 260 262 264 268 270 272 269 267 267 266 265 265 265 264 264 264 264
Wind_Speed
4 4 4 4 4 4 5 4 5 6 7 8 8 9 10 11 10 10 10 11 12 12 11 11 13 12 9 9 8 9 10 10 15 12 11 12 17 15 12 10 10 11 11
4 4 5 4 5 5 4 6 7 9 10 11 11 11 11 11 11 12 13 13 14 14 14 14 15 10 14 13 10 13 12 12 12 20 14 11 14 15 15 15 11 10 11
4 5 5 4 5 7 8 9 9 9 10 10 10 11 12 12 13 13 14 14 14 14 14 14 16 15 15 12 13 12 11 11 11 13 16 11 11 11 15 15 14 13 11
5 5 6 6 6 5 5 6 7 8 8 9 10 11 12 12 13 13 14 15 15 15 15 16 16 17 17 16 13 14 13 13 12 12 14 13 11 10 11 13 14 11 13
5 5 5 4 5 5 5 6 7 7 7 9 11 10 11 11 10 14 16 17 17 17 16 16 16 16 24 22 14 16 16 14 12 13 15 13 13 10 12 11 14 12 13
5 5 4 4 4 5 5 7 7 8 9 10 11 12 13 10 20 22 19 15 17 17 16 16 17 19 19 24 26 30 26 17 17 14 13 14 18 14 12 9 11 11 16
5 4 4 3 3 5 6 7 9 10 10 11 11 12 13 14 21 23 24 15 16 16 17 16 16 13 17 17 21 26 25 26 28 20 20 19 19 15 14 13 13 13 13
4 4 3 3 4 5 6 8 8 9 10 10 11 12 13 12 22 24 24 16 14 16 16 16 17 17 17 17 17 17 17 16 17 14 17 18 19 20 18 16 17 19 18
4 3 2 3 3 6 5 8 8 9 10 10 10 11 13 13 22 23 21 14 14 16 15 16 17 17 22 27 19 17 18 16 17 28 31 33 34 35 29 16 14 13 14
4 3 2 3 2 4 7 7 6 7 10 9 11 11 14 13 21 22 20 11 13 12 13 15 22 20 28 27 18 16 18 16 16 17 17 22 26 23 31 21 14 15 16
4 2 1 1 3 5 5 6 6 7 9 9 11 11 12 13 15 22 23 13 11 12 11 11 12 26 29 30 30 17 20 21 22 20 17 14 15 15 13 14 17 15 15
3 2 0 3 4 4 4 5 6 6 7 9 9 10 9 11 16 19 24 24 23 14 14 13 15 30 33 33 28 32 35 31 13 13 12 13 13 13 12 13 15 16 15
4 2 2 4 4 4 4 6 5 5 6 8 8 9 10 9 8 20 26 28 27 18 13 20 32 32 30 22 24 29 27 13 12 13 14 15 14 14 16 15 15 18 20
4 3 3 4 4 3 4 5 5 6 6 8 8 9 9 10 9 11 11 10 17 16 20 11 18 24 24 20 14 14 10 11 12 14 15 14 13 12 12 11 12 12 14
4 3 3 3 3 4 5 5 6 7 8 8 7 8 8 10 11 22 21 13 12 16 17 9 9 9 10 10 11 11 11 11 12 12 13 14 13 12 12 11 11 12 14
4 4 3 2 3 3 4 7 10 12 15 17 15 13 8 19 24 26 26 26 26 24 8 8 9 9 10 11 11 12 12 14 12 13 13 13 12 12 11 11 12 12 13
5 4 2 3 3 3 3 4 8 9 13 11 12 17 20 19 23 24 24 24 21 17 6 8 9 10 11 11 11 12 13 13 16 13 12 11 11 9 11 11 11 12 13
5 5 3 3 3 3 3 3 4 5 9 9 9 14 16 19 21 22 22 17 10 9 6 8 10 10 11 11 12 12 13 13 13 13 12 10 9 10 11 12 12 13 12
4 4 4 3 3 4 3 2 4 5 6 8 10 9 11 19 18 18 18 4 8 9 9 10 9 10 11 11 12 12 13 13 13 12 12 9 10 9 11 12 12 16 16
4 6 5 3 3 3 3 3 3 4 5 5 6 7 10 8 9 9 8 8 8 8 9 10 10 11 11 12 12 13 12 12 12 11 12 11 9 9 11 12 11 11 11
3 3 5 3 4 3 3 4 4 4 5 5 6 5 17 6 7 7 9 9 8 9 9 10 10 11 11 12 12 13 13 12 12 12 11 11 11 10 9 9 11 11 12
4 4 3 4 3 4 4 4 4 4 5 5 6 5 15 4 5 6 8 8 9 9 8 9 9 10 11 12 13 13 14 12 12 11 11 11 10 9 8 7 6 5 3
4 4 4 3 4 4 4 4 4 4 5 5 5 5 5 5 5 6 7 8 9 9 8 8 9 10 10 11 12 13 14 12 11 11 11 10 9 9 8 8 7 6 6
4 4 4 4 3 4 4 4 4 6 6 5 5 5 5 6 6 7 7 8 8 9 8 9 9 12 12 12 11 13 13 10 10 10 12 10 9 10 8 8 8 10 8
4 4 4 4 4 4 4 4 5 5 5 5 5 4 5 6 7 6 7 7 8 8 10 10 9 12 14 19 16 19 19 15 13 14 9 11 11 12 10 8 9 8 10
4 4 4 4 5 4 4 5 5 5 5 5 5 5 5 7 7 7 7 8 7 9 10 9 11 15 18 13 15 20 18 16 13 16 10 9 10 10 9 10 12 8 10
Wind_Direction
111 101 88 68 59 51 48 31 17 6 0 357 348 339 337 334 332 325 320 311 307 304 297 290 286 288 278 279 273 266 265 263 271 277 273 277 284 284 280 272 263 265 267
93 91 79 66 57 53 34 20 18 8 0 352 343 337 332 328 325 319 312 309 303 300 298 296 291 293 289 284 277 274 272 273 273 281 280 278 268 279 282 279 271 264 259
90 98 95 80 55 34 22 15 11 2 351 344 339 333 329 326 322 315 307 302 298 294 292 289 288 288 284 282 279 278 276 276 272 276 283 280 277 272 278 275 275 266 258
111 98 74 53 47 38 24 11 1 352 343 339 332 325 321 319 315 309 310 307 301 296 294 291 290 290 290 290 282 278 276 273 271 272 277 280 276 273 266 272 275 267 271
115 94 77 65 51 33 16 5 349 343 338 327 321 317 318 315 312 314 309 302 299 295 292 292 291 292 298 294 291 286 283 282 270 266 269 275 274 271 266 266 264 278 271
104 88 83 67 32 15 1 349 342 335 332 327 326 322 319 315 313 312 308 302 303 301 298 298 296 290 289 294 294 292 289 289 284 289 295 270 270 271 270 271 275 274 275
102 95 96 64 24 9 354 342 339 334 329 325 320 318 314 310 308 310 311 304 301 299 298 299 299 296 296 292 291 289 289 285 280 282 282 276 290 286 282 280 279 283 284
122 123 79 40 18 356 345 335 329 325 321 317 312 306 302 304 307 310 308 306 304 297 295 296 294 293 285 287 283 280 277 274 274 270 268 276 276 280 280 277 269 265 264
149 127 80 38 4 346 325 321 321 315 314 306 305 306 299 298 306 308 314 306 299 294 292 289 283 281 286 290 284 279 277 275 273 275 277 280 281 281 279 274 268 253 256
154 104 49 25 348 310 310 311 307 302 303 305 305 299 292 293 299 309 315 301 296 294 286 280 278 278 281 288 288 285 280 277 274 270 264 265 267 266 268 270 278 272 274
121 95 70 348 311 296 292 303 297 298 303 301 300 296 291 288 287 306 310 303 292 285 282 283 279 286 290 288 284 276 272 275 270 267 265 263 261 259 259 253 253 256 262
142 152 279 311 304 302 287 291 287 291 291 295 295 294 289 287 287 303 306 303 302 301 289 284 282 283 280 277 276 272 275 284 293 287 275 267 262 258 253 250 252 254 256
134 185 261 282 274 272 273 289 293 281 282 293 296 297 299 296 286 299 302 300 298 296 287 282 289 300 310 314 304 296 298 294 289 279 272 269 266 265 263 261 260 260 260
168 223 254 249 282 280 295 285 272 277 283 286 291 292 301 311 312 303 291 295 299 298 293 313 325 319 311 307 310 305 299 294 287 283 279 279 278 270 258 256 260 260 260
183 232 245 249 265 288 280 277 271 269 268 284 300 300 311 316 307 319 323 323 325 334 334 332 327 323 319 316 311 307 300 294 287 283 282 279 274 270 264 259 260 261 259
195 219 222 268 263 282 295 303 307 305 311 311 312 320 318 310 323 324 333 334 348 338 350 326 320 318 314 312 309 307 303 299 293 289 281 279 274 267 264 259 255 256 262
203 217 233 263 271 275 313 316 316 321 322 318 323 326 320 327 329 336 339 347 344 344 325 316 313 312 309 307 305 304 304 302 300 295 292 283 281 267 257 256 260 263 263
196 221 215 239 248 252 250 271 281 292 313 313 319 320 326 332 335 344 342 347 331 337 319 317 312 311 310 308 306 305 306 305 304 304 301 282 273 268 266 264 263 263 269
193 225 218 232 238 240 241 253 267 273 275 286 311 324 320 326 339 347 345 326 319 319 322 319 314 311 309 308 305 304 306 307 307 308 311 290 271 267 266 266 267 268 276
207 232 212 222 237 251 249 247 259 261 270 275 288 301 315 318 348 337 329 324 323 318 317 315 315 313 312 312 311 314 312 315 315 314 315 314 293 265 264 267 266 268 263
191 208 225 228 231 237 238 237 243 254 264 271 275 281 305 354 323 313 312 312 311 310 315 316 315 315 314 318 319 319 318 320 320 318 317 316 316 312 302 278 267 262 263
183 198 210 230 229 241 233 239 239 247 263 267 281 285 317 303 284 294 298 298 299 297 302 307 309 315 316 320 321 319 324 328 326 324 323 322 324 327 326 329 331 338 5
190 203 220 242 239 240 249 243 244 246 264 265 275 286 295 290 289 292 293 297 301 302 310 309 310 315 320 322 321 320 328 336 330 325 327 332 338 342 346 353 1 12 22
190 214 231 241 252 241 244 255 251 252 259 273 276 280 281 288 289 290 290 296 300 304 311 309 308 308 317 322 323 323 332 346 340 337 340 343 351 353 1 8 14 25 33
198 231 241 246 246 245 252 252 255 254 261 267 275 272 285 287 285 287 291 295 297 305 313 311 311 315 318 322 322 323 339 360 359 353 351 356 0 6 12 16 17 25 35
230 234 246 249 247 237 239 250 249 256 265 273 267 266 278 284 283 287 292 295 299 307 305 305 308 313 317 317 322 328 345 356 13 3 2 6 11 14 13 18 22 30 38